Home   Weather   Ålesund   Past weeks

Flag for Norway Past Weather in Ålesund, Norway — Yesterday and Last 2 Weeks

Now
39 °F

Light rain. Mostly cloudy.


Feels Like: 31 °F
Forecast: 35 / 43 °F
Wind: 15 mph from Southwest

Location: Alesund / Vigra

Current Time: Feb 26, 2017 at 4:39:45 am

Latest Report: Feb 26, 2017 at 3:50 am


Visibility: N/A

Pressure: 29.33 "Hg

Humidity: 87%

Dew Point: 36 °F

Location of ÅlesundLocation

Past Weather in Ålesund — Graph

°F

Ålesund Temperature Yesterday

Maximum temperature yesterday: 41 °F (at 6:20 pm)
Minimum temperature yesterday: 28 °F (at 12:20 am)
Average temperature yesterday: 34 °F

High & Low Weather Summary for the Past Weeks

 TemperatureHumidityPressure
High46 °F (Feb 18, 1:50 pm)100% (Feb 16, 3:20 am)30.74 "Hg (Feb 16, 3:20 am)
Low23 °F (Feb 11, 10:50 pm)48% (Feb 11, 2:50 pm)28.56 "Hg (Feb 22, 9:50 am)
Average38 °F83%29.81 "Hg
* Reported Feb 11 3:20 am — Feb 26 3:20 am, Ålesund, Weather by CustomWeather, © 2017

Note: Actual official high and low records may vary slightly from our data, if they occured in-between our weather recording intervals... More about our weather records

Advertising

Ålesund Weather History for the Previous 24 Hours

Scroll right to see more
 ConditionsComfort  
Time TempWeatherWind HumidityBarometerVisibility
3:20 am
Sun, Feb 26
39 °FMostly cloudy.12 mph87%29.33 "HgN/A
2:50 am39 °FPassing clouds.6 mph87%29.33 "HgN/A
2:20 am39 °FPartly cloudy.12 mph87%29.33 "HgN/A
1:50 am39 °FPartly cloudy.16 mph87%29.30 "HgN/A
1:20 am41 °FPassing clouds.14 mph81%29.30 "HgN/A
12:50 am41 °FPartly cloudy.13 mph81%29.30 "HgN/A
12:20 am39 °FScattered showers. Passing clouds.17 mph93%29.30 "HgN/A
11:50 pm
Sat, Feb 25
41 °FSprinkles. Partly cloudy.16 mph76%29.27 "HgN/A
11:20 pm41 °FMostly cloudy.16 mph76%29.27 "HgN/A
10:50 pm41 °FPassing clouds.18 mph76%29.24 "HgN/A
10:20 pm41 °FPassing clouds.20 mph81%29.24 "HgN/A
9:50 pm41 °FPartly cloudy.12 mph87%29.24 "HgN/A
9:20 pm41 °FLight rain. Passing clouds.23 mph87%29.21 "Hg6 mi
8:50 pm41 °FPartly cloudy.21 mph87%29.21 "HgN/A
8:20 pm41 °FLight rain. Passing clouds.20 mph87%29.18 "HgN/A
7:50 pm41 °FPartly cloudy.21 mph81%29.18 "HgN/A
7:20 pm41 °FPassing clouds.16 mph81%29.15 "HgN/A
6:50 pm41 °FPassing clouds.12 mph81%29.15 "HgN/A
6:20 pm41 °FLight rain. Passing clouds.7 mph81%29.12 "HgN/A
5:50 pm37 °FLight rain. Partly cloudy.12 mph93%29.12 "HgN/A
5:20 pm37 °FDrizzle. Partly sunny.17 mph93%29.12 "HgN/A
4:50 pm36 °FLight rain. Broken clouds.18 mph93%29.12 "HgN/A
4:20 pm36 °FLight rain. Broken clouds.18 mph93%29.12 "HgN/A
3:50 pm34 °FScattered showers. Fog.20 mph100%29.15 "HgN/A
3:20 pm34 °FScattered showers. Light fog.18 mph93%29.15 "Hg6 mi
2:50 pm34 °FLight snow. Dense fog.18 mph93%29.18 "Hg2 mi
2:20 pm32 °FLight snow. Dense fog.20 mph100%29.21 "Hg2 mi
1:50 pm32 °FLight snow. Dense fog.21 mph93%29.24 "Hg2 mi
1:20 pm32 °FLight snow. Fog.24 mph93%29.27 "Hg2 mi
12:50 pm32 °FLight snow. Fog.25 mph93%29.30 "Hg3 mi
12:20 pm32 °FLight snow. Light fog.22 mph87%29.33 "Hg4 mi
11:50 am34 °FSnow showers. Partly sunny.20 mph75%29.36 "Hg5 mi
11:20 am34 °FSnow showers. Scattered clouds.20 mph60%29.39 "HgN/A
10:50 am34 °FScattered clouds.21 mph56%29.42 "HgN/A
10:20 am34 °FScattered clouds.20 mph56%29.42 "HgN/A
9:50 am32 °FBroken clouds.22 mph60%29.45 "HgN/A
9:20 am32 °FSunny.22 mph64%29.47 "Hg10 mi
8:50 am32 °FSunny.17 mph60%29.50 "Hg10 mi
8:20 am32 °FSunny.16 mph60%29.53 "Hg10 mi
7:50 am30 °FClear.18 mph69%29.53 "Hg10 mi
7:20 am30 °FClear.21 mph69%29.56 "Hg10 mi
6:50 am30 °FClear.21 mph69%29.59 "Hg10 mi
6:20 am30 °FClear.17 mph80%29.62 "Hg10 mi
5:50 am30 °FClear.21 mph75%29.62 "Hg10 mi
5:20 am28 °FChilly.17 mph80%29.65 "HgN/A
4:50 am28 °FChilly.16 mph80%29.68 "HgN/A
4:20 am28 °FChilly.16 mph86%29.68 "HgN/A
Weather by CustomWeather, © 2017

See weather overviewHow to use our weather pages